Time,TemperatureF,DewpointF,PressureIn,WindDirection,WindDirectionDegrees,WindSpeedMPH,WindSpeedGustMPH,Humidity,HourlyPrecipIn,Conditions,Clouds,dailyrainin,SoftwareType,DateUTC
2013-08-24 00:13:00,58.8,58.0,30.17,SE,127,0.0,0.0,97,0.00,,,0.00,weatherlink.com 1.10,2013-08-24 04:13:00,
2013-08-24 00:28:00,58.8,58.0,30.17,SE,127,0.0,0.0,97,0.00,,,0.00,weatherlink.com 1.10,2013-08-24 04:28:00,
2013-08-24 00:43:00,58.7,58.0,30.17,SE,127,0.0,0.0,97,0.00,,,0.00,weatherlink.com 1.10,2013-08-24 04:43:00,
2013-08-24 00:58:00,58.4,58.0,30.17,SE,127,0.0,0.0,97,0.00,,,0.00,weatherlink.com 1.10,2013-08-24 04:58:00,
2013-08-24 01:13:00,58.2,57.0,30.18,SE,127,0.0,0.0,97,0.00,,,0.00,weatherlink.com 1.10,2013-08-24 05:13:00,
2013-08-24 01:28:00,58.3,58.0,30.18,SE,127,0.0,0.0,97,0.00,,,0.00,weatherlink.com 1.10,2013-08-24 05:28:00,
2013-08-24 01:43:00,58.3,58.0,30.18,SE,127,0.0,0.0,97,0.00,,,0.00,weatherlink.com 1.10,2013-08-24 05:43:00,
2013-08-24 01:58:00,58.4,58.0,30.18,SE,127,0.0,0.0,97,0.00,,,0.00,weatherlink.com 1.10,2013-08-24 05:58:00,
2013-08-24 02:13:00,59.9,59.0,30.18,SE,127,0.0,0.0,98,0.00,,,0.00,weatherlink.com 1.10,2013-08-24 06:13:00,
2013-08-24 02:28:00,60.8,60.0,30.18,SE,127,0.0,0.0,98,0.00,,,0.00,weatherlink.com 1.10,2013-08-24 06:28:00,
2013-08-24 02:43:00,61.1,61.0,30.18,SW,214,0.0,1.0,98,0.01,,,0.01,weatherlink.com 1.10,2013-08-24 06:43:00,
2013-08-24 02:58:00,61.2,61.0,30.19,South,169,0.0,0.0,98,0.01,,,0.01,weatherlink.com 1.10,2013-08-24 06:58:00,
2013-08-24 03:13:00,61.1,60.0,30.19,SE,141,1.0,2.0,97,0.01,,,0.01,weatherlink.com 1.10,2013-08-24 07:13:00,
2013-08-24 03:28:00,61.1,60.0,30.20,South,185,0.0,1.0,97,0.01,,,0.01,weatherlink.com 1.10,2013-08-24 07:28:00,
2013-08-24 03:43:00,61.1,60.0,30.20,SE,145,0.0,2.0,96,0.00,,,0.01,weatherlink.com 1.10,2013-08-24 07:43:00,
2013-08-24 04:00:00,61.4,59.0,30.20,ESE,116,0.0,1.0,93,0.00,,,0.01,weatherlink.com 1.10,2013-08-24 08:00:00,
2013-08-24 04:14:00,61.4,59.0,30.21,ESE,104,0.0,1.0,91,0.00,,,0.01,weatherlink.com 1.10,2013-08-24 08:14:00,
2013-08-24 04:29:00,61.4,59.0,30.21,SSW,208,0.0,1.0,90,0.00,,,0.01,weatherlink.com 1.10,2013-08-24 08:29:00,
2013-08-24 04:44:00,61.5,58.0,30.22,SE,133,0.0,1.0,89,0.00,,,0.01,weatherlink.com 1.10,2013-08-24 08:44:00,
2013-08-24 04:59:00,61.6,58.0,30.22,SE,137,0.0,3.0,89,0.00,,,0.01,weatherlink.com 1.10,2013-08-24 08:59:00,
2013-08-24 05:14:00,61.5,58.0,30.23,SE,129,0.0,2.0,88,0.00,,,0.01,weatherlink.com 1.10,2013-08-24 09:14:00,
2013-08-24 05:29:00,61.2,58.0,30.23,ENE,65,0.0,2.0,88,0.00,,,0.01,weatherlink.com 1.10,2013-08-24 09:29:00,
2013-08-24 05:44:00,61.2,58.0,30.23,ESE,120,0.0,3.0,88,0.00,,,0.01,weatherlink.com 1.10,2013-08-24 09:44:00,
2013-08-24 05:59:00,60.9,57.0,30.24,East,99,0.0,2.0,88,0.00,,,0.01,weatherlink.com 1.10,2013-08-24 09:59:00,
2013-08-24 06:14:00,60.5,57.0,30.25,ESE,119,0.0,1.0,89,0.00,,,0.01,weatherlink.com 1.10,2013-08-24 10:14:00,
2013-08-24 06:29:00,60.3,57.0,30.25,East,98,0.0,2.0,89,0.00,,,0.01,weatherlink.com 1.10,2013-08-24 10:29:00,
2013-08-24 06:44:00,60.2,57.0,30.26,SE,139,1.0,2.0,89,0.00,,,0.01,weatherlink.com 1.10,2013-08-24 10:44:00,
2013-08-24 06:59:00,60.0,57.0,30.26,SE,124,0.0,1.0,89,0.00,,,0.01,weatherlink.com 1.10,2013-08-24 10:59:00,
2013-08-24 07:14:00,60.2,57.0,30.27,East,94,1.0,2.0,89,0.00,,,0.01,weatherlink.com 1.10,2013-08-24 11:14:00,
2013-08-24 07:29:00,60.5,57.0,30.28,ENE,67,0.0,1.0,89,0.00,,,0.01,weatherlink.com 1.10,2013-08-24 11:29:00,
2013-08-24 07:44:00,61.3,58.0,30.28,East,89,0.0,2.0,88,0.00,,,0.01,weatherlink.com 1.10,2013-08-24 11:44:00,
2013-08-24 07:59:00,62.5,58.0,30.28,ESE,110,0.0,2.0,86,0.00,,,0.01,weatherlink.com 1.10,2013-08-24 11:59:00,
2013-08-24 08:14:00,63.6,59.0,30.29,East,100,1.0,4.0,85,0.00,,,0.01,weatherlink.com 1.10,2013-08-24 12:14:00,
2013-08-24 08:29:00,64.6,59.0,30.30,East,87,0.0,5.0,82,0.00,,,0.01,weatherlink.com 1.10,2013-08-24 12:29:00,
2013-08-24 08:44:00,65.4,59.0,30.30,ESE,114,0.0,2.0,81,0.00,,,0.01,weatherlink.com 1.10,2013-08-24 12:44:00,
2013-08-24 08:59:00,66.4,60.0,30.31,East,98,6.0,6.0,80,0.00,,,0.01,weatherlink.com 1.10,2013-08-24 12:59:00,
2013-08-24 09:14:00,67.7,61.0,30.31,ESE,106,1.0,4.0,79,0.00,,,0.01,weatherlink.com 1.10,2013-08-24 13:14:00,
2013-08-24 09:29:00,68.7,61.0,30.31,ESE,118,1.0,6.0,76,0.00,,,0.01,weatherlink.com 1.10,2013-08-24 13:29:00,
2013-08-24 09:44:00,69.7,62.0,30.31,East,86,0.0,7.0,76,0.00,,,0.01,weatherlink.com 1.10,2013-08-24 13:44:00,
2013-08-24 10:00:00,70.8,62.0,30.32,ENE,74,2.0,4.0,74,0.00,,,0.01,weatherlink.com 1.10,2013-08-24 14:00:00,
2013-08-24 10:15:00,71.7,62.0,30.32,East,96,0.0,6.0,72,0.00,,,0.01,weatherlink.com 1.10,2013-08-24 14:15:00,
2013-08-24 10:30:00,72.3,63.0,30.33,ESE,105,1.0,6.0,73,0.00,,,0.01,weatherlink.com 1.10,2013-08-24 14:30:00,
2013-08-24 10:46:00,73.6,63.0,30.33,ESE,120,0.0,2.0,70,0.00,,,0.01,weatherlink.com 1.10,2013-08-24 14:46:00,
2013-08-24 11:00:00,74.0,63.0,30.33,ESE,121,2.0,4.0,69,0.00,,,0.01,weatherlink.com 1.10,2013-08-24 15:00:00,
2013-08-24 11:15:00,74.8,64.0,30.33,ENE,73,1.0,3.0,70,0.00,,,0.01,weatherlink.com 1.10,2013-08-24 15:15:00,
2013-08-24 11:30:00,75.4,63.0,30.32,North,354,0.0,5.0,66,0.00,,,0.01,weatherlink.com 1.10,2013-08-24 15:30:00,
2013-08-24 11:45:00,75.7,63.0,30.32,SE,131,1.0,7.0,65,0.00,,,0.01,weatherlink.com 1.10,2013-08-24 15:45:00,
2013-08-24 12:00:00,76.2,64.0,30.32,East,101,2.0,5.0,66,0.00,,,0.01,weatherlink.com 1.10,2013-08-24 16:00:00,
2013-08-24 12:15:00,76.2,64.0,30.32,ESE,105,0.0,5.0,66,0.00,,,0.01,weatherlink.com 1.10,2013-08-24 16:15:00,
2013-08-24 12:30:00,77.3,65.0,30.32,East,95,1.0,4.0,66,0.00,,,0.01,weatherlink.com 1.10,2013-08-24 16:30:00,
2013-08-24 12:45:00,77.7,64.0,30.32,East,80,1.0,4.0,62,0.00,,,0.01,weatherlink.com 1.10,2013-08-24 16:45:00,
2013-08-24 13:00:00,78.0,65.0,30.32,SE,127,3.0,3.0,64,0.00,,,0.01,weatherlink.com 1.10,2013-08-24 17:00:00,
2013-08-24 13:15:00,78.1,62.0,30.32,East,86,2.0,5.0,59,0.00,,,0.01,weatherlink.com 1.10,2013-08-24 17:15:00,
2013-08-24 13:30:00,78.6,62.0,30.32,ESE,115,2.0,5.0,58,0.00,,,0.01,weatherlink.com 1.10,2013-08-24 17:30:00,
2013-08-24 13:45:00,79.4,63.0,30.32,ESE,104,1.0,4.0,57,0.00,,,0.01,weatherlink.com 1.10,2013-08-24 17:45:00,
2013-08-24 14:00:00,79.0,62.0,30.31,ESE,112,0.0,6.0,56,0.00,,,0.01,weatherlink.com 1.10,2013-08-24 18:00:00,
2013-08-24 14:15:00,80.5,62.0,30.31,East,101,0.0,3.0,54,0.00,,,0.01,weatherlink.com 1.10,2013-08-24 18:15:00,
2013-08-24 14:30:00,80.7,61.0,30.31,South,172,2.0,4.0,52,0.00,,,0.01,weatherlink.com 1.10,2013-08-24 18:30:00,
2013-08-24 14:45:00,81.3,59.0,30.31,West,278,0.0,5.0,47,0.00,,,0.01,weatherlink.com 1.10,2013-08-24 18:45:00,
2013-08-24 15:00:00,81.6,61.0,30.31,SW,217,0.0,5.0,49,0.00,,,0.01,weatherlink.com 1.10,2013-08-24 19:00:00,
2013-08-24 15:15:00,82.2,60.0,30.31,ESE,118,1.0,4.0,47,0.00,,,0.01,weatherlink.com 1.10,2013-08-24 19:15:00,
2013-08-24 15:30:00,82.2,59.0,30.31,WSW,246,1.0,4.0,46,0.00,,,0.01,weatherlink.com 1.10,2013-08-24 19:30:00,
2013-08-24 15:45:00,82.2,60.0,30.31,WNW,293,0.0,4.0,47,0.00,,,0.01,weatherlink.com 1.10,2013-08-24 19:45:00,
2013-08-24 16:00:00,82.4,57.0,30.31,East,80,0.0,5.0,42,0.00,,,0.01,weatherlink.com 1.10,2013-08-24 20:00:00,
2013-08-24 16:15:00,82.8,56.0,30.31,ESE,109,2.0,8.0,40,0.00,,,0.01,weatherlink.com 1.10,2013-08-24 20:15:00,
2013-08-24 16:30:00,82.8,56.0,30.31,SE,127,1.0,5.0,40,0.00,,,0.01,weatherlink.com 1.10,2013-08-24 20:30:00,
2013-08-24 16:45:00,83.7,58.0,30.31,ESE,108,3.0,3.0,42,0.00,,,0.01,weatherlink.com 1.10,2013-08-24 20:45:00,
2013-08-24 17:01:00,83.3,57.0,30.31,SE,127,2.0,3.0,40,0.00,,,0.01,weatherlink.com 1.10,2013-08-24 21:01:00,
2013-08-24 17:15:00,82.7,58.0,30.31,WSW,246,1.0,4.0,43,0.00,,,0.01,weatherlink.com 1.10,2013-08-24 21:15:00,
2013-08-24 17:31:00,82.7,57.0,30.30,ESE,104,0.0,3.0,42,0.00,,,0.01,weatherlink.com 1.10,2013-08-24 21:31:00,
2013-08-24 17:46:00,82.6,57.0,30.31,SE,141,0.0,2.0,42,0.00,,,0.01,weatherlink.com 1.10,2013-08-24 21:46:00,
2013-08-24 18:01:00,81.9,58.0,30.31,ESE,104,0.0,4.0,44,0.00,,,0.01,weatherlink.com 1.10,2013-08-24 22:01:00,
2013-08-24 18:16:00,80.3,59.0,30.31,ENE,60,0.0,3.0,49,0.00,,,0.01,weatherlink.com 1.10,2013-08-24 22:16:00,
2013-08-24 18:31:00,79.5,60.0,30.31,ESE,109,1.0,1.0,51,0.00,,,0.01,weatherlink.com 1.10,2013-08-24 22:31:00,
2013-08-24 18:46:00,78.5,59.0,30.31,ESE,108,0.0,1.0,51,0.00,,,0.01,weatherlink.com 1.10,2013-08-24 22:46:00,
2013-08-24 19:01:00,77.3,61.0,30.31,SE,136,0.0,0.0,57,0.00,,,0.01,weatherlink.com 1.10,2013-08-24 23:01:00,
2013-08-24 19:16:00,76.0,61.0,30.31,ESE,117,0.0,0.0,61,0.00,,,0.01,weatherlink.com 1.10,2013-08-24 23:16:00,
2013-08-24 19:31:00,74.0,63.0,30.31,ESE,117,0.0,0.0,68,0.00,,,0.01,weatherlink.com 1.10,2013-08-24 23:31:00,
2013-08-24 19:46:00,72.2,63.0,30.32,ESE,117,0.0,0.0,72,0.00,,,0.01,weatherlink.com 1.10,2013-08-24 23:46:00,
2013-08-24 20:01:00,71.2,63.0,30.32,ESE,117,0.0,0.0,74,0.00,,,0.01,weatherlink.com 1.10,2013-08-25 00:01:00,
2013-08-24 20:16:00,69.7,61.0,30.33,ESE,117,0.0,0.0,75,0.00,,,0.01,weatherlink.com 1.10,2013-08-25 00:16:00,
2013-08-24 20:31:00,68.3,62.0,30.34,ESE,117,0.0,0.0,79,0.00,,,0.01,weatherlink.com 1.10,2013-08-25 00:31:00,
2013-08-24 20:46:00,67.1,61.0,30.34,ESE,117,0.0,0.0,82,0.00,,,0.01,weatherlink.com 1.10,2013-08-25 00:46:00,
2013-08-24 21:01:00,66.3,61.0,30.35,ESE,117,0.0,0.0,83,0.00,,,0.01,weatherlink.com 1.10,2013-08-25 01:01:00,
2013-08-24 21:16:00,65.6,61.0,30.36,ESE,117,0.0,0.0,85,0.00,,,0.01,weatherlink.com 1.10,2013-08-25 01:16:00,
2013-08-24 21:31:00,64.9,60.0,30.37,ESE,117,0.0,0.0,85,0.00,,,0.01,weatherlink.com 1.10,2013-08-25 01:31:00,
2013-08-24 21:46:00,64.3,60.0,30.37,ESE,117,0.0,0.0,87,0.00,,,0.01,weatherlink.com 1.10,2013-08-25 01:46:00,
2013-08-24 22:01:00,63.7,60.0,30.37,ESE,117,0.0,0.0,88,0.00,,,0.01,weatherlink.com 1.10,2013-08-25 02:01:00,
2013-08-24 22:16:00,63.1,60.0,30.37,ESE,117,0.0,0.0,89,0.00,,,0.01,weatherlink.com 1.10,2013-08-25 02:16:00,
2013-08-24 22:31:00,62.6,60.0,30.37,ESE,117,0.0,0.0,90,0.00,,,0.01,weatherlink.com 1.10,2013-08-25 02:31:00,
2013-08-24 22:46:00,62.1,60.0,30.37,ESE,117,0.0,0.0,91,0.00,,,0.01,weatherlink.com 1.10,2013-08-25 02:46:00,
2013-08-24 23:01:00,61.5,59.0,30.38,ESE,117,0.0,0.0,92,0.00,,,0.01,weatherlink.com 1.10,2013-08-25 03:01:00,
2013-08-24 23:16:00,61.1,59.0,30.38,ESE,117,0.0,0.0,92,0.00,,,0.01,weatherlink.com 1.10,2013-08-25 03:16:00,
2013-08-24 23:31:00,60.6,58.0,30.38,ESE,117,0.0,0.0,92,0.00,,,0.01,weatherlink.com 1.10,2013-08-25 03:31:00,
2013-08-24 23:46:00,60.5,59.0,30.39,ESE,117,0.0,0.0,93,0.00,,,0.01,weatherlink.com 1.10,2013-08-25 03:46:00,